Year,Month,Day,Hour,Minute,Value (Times are PST for temperature in C)
2017,05,22,00,00,15.20
2017,05,22,00,01,15.20
2017,05,22,00,02,15.10
2017,05,22,00,03,15.10
2017,05,22,00,04,15.10
2017,05,22,00,05,15.10
2017,05,22,00,06,15.10
2017,05,22,00,07,15.10
2017,05,22,00,08,15.10
2017,05,22,00,09,15.10
2017,05,22,00,10,15.10
2017,05,22,00,11,15.10
2017,05,22,00,12,15.10
2017,05,22,00,13,15.10
2017,05,22,00,14,15.10
2017,05,22,00,15,15.10
2017,05,22,00,16,15.10
2017,05,22,00,17,15.00
2017,05,22,00,18,15.00
2017,05,22,00,19,15.00
2017,05,22,00,20,15.00
2017,05,22,00,21,15.00
2017,05,22,00,22,14.90
2017,05,22,00,23,14.90
2017,05,22,00,24,14.90
2017,05,22,00,25,14.90
2017,05,22,00,26,14.90
2017,05,22,00,27,14.90
2017,05,22,00,28,15.00
2017,05,22,00,29,15.00
2017,05,22,00,30,15.00
2017,05,22,00,31,15.00
2017,05,22,00,32,15.10
2017,05,22,00,33,15.10
2017,05,22,00,34,15.10
2017,05,22,00,35,15.10
2017,05,22,00,36,15.20
2017,05,22,00,37,15.20
2017,05,22,00,38,15.20
2017,05,22,00,39,15.20
2017,05,22,00,40,15.20
2017,05,22,00,41,15.20
2017,05,22,00,42,15.10
2017,05,22,00,43,15.10
2017,05,22,00,44,15.10
2017,05,22,00,45,15.20
2017,05,22,00,46,15.20
2017,05,22,00,47,15.20
2017,05,22,00,48,15.20
2017,05,22,00,49,15.20
2017,05,22,00,50,15.20
2017,05,22,00,51,15.20
2017,05,22,00,52,15.20
2017,05,22,00,53,15.20
2017,05,22,00,54,15.20
2017,05,22,00,55,15.20
2017,05,22,00,56,15.20
2017,05,22,00,57,15.20
2017,05,22,00,58,15.30
2017,05,22,00,59,15.30
2017,05,22,01,00,15.30
2017,05,22,01,01,15.30
2017,05,22,01,02,15.30
2017,05,22,01,03,15.30
2017,05,22,01,04,15.30
2017,05,22,01,05,15.40
2017,05,22,01,06,15.40
2017,05,22,01,07,15.40
2017,05,22,01,08,15.50
2017,05,22,01,09,15.50
2017,05,22,01,10,15.60
2017,05,22,01,11,15.60
2017,05,22,01,12,15.60
2017,05,22,01,13,15.60
2017,05,22,01,14,15.60
2017,05,22,01,15,15.60
2017,05,22,01,16,15.60
2017,05,22,01,17,15.50
2017,05,22,01,18,15.50
2017,05,22,01,19,15.50
2017,05,22,01,20,15.50
2017,05,22,01,21,15.40
2017,05,22,01,22,15.40
2017,05,22,01,23,15.40
2017,05,22,01,24,15.30
2017,05,22,01,25,15.30
2017,05,22,01,26,15.20
2017,05,22,01,27,15.20
2017,05,22,01,28,15.20
2017,05,22,01,29,15.20
2017,05,22,01,30,15.10
2017,05,22,01,31,15.10
2017,05,22,01,32,15.10
2017,05,22,01,33,15.00
2017,05,22,01,34,15.00
2017,05,22,01,35,15.00
2017,05,22,01,36,14.90
2017,05,22,01,37,14.90
2017,05,22,01,38,14.80
2017,05,22,01,39,14.80
2017,05,22,01,40,14.70
2017,05,22,01,41,14.70
2017,05,22,01,42,14.70
2017,05,22,01,43,14.60
2017,05,22,01,44,14.50
2017,05,22,01,45,14.50
2017,05,22,01,46,14.40
2017,05,22,01,47,14.40
2017,05,22,01,48,14.30
2017,05,22,01,49,14.30
2017,05,22,01,50,14.30
2017,05,22,01,51,14.30
2017,05,22,01,52,14.30
2017,05,22,01,53,14.30
2017,05,22,01,54,14.30
2017,05,22,01,55,14.30
2017,05,22,01,56,14.30
2017,05,22,01,57,14.30
2017,05,22,01,58,14.30
2017,05,22,01,59,14.40
2017,05,22,02,00,14.40
2017,05,22,02,01,14.40
2017,05,22,02,02,14.40
2017,05,22,02,03,14.40
2017,05,22,02,04,14.40
2017,05,22,02,05,14.40
2017,05,22,02,06,14.50
2017,05,22,02,07,14.50
2017,05,22,02,08,14.50
2017,05,22,02,09,14.50
2017,05,22,02,10,14.60
2017,05,22,02,11,14.60
2017,05,22,02,12,14.60
2017,05,22,02,13,14.60
2017,05,22,02,14,14.60
2017,05,22,02,15,14.60
2017,05,22,02,16,14.50
2017,05,22,02,17,14.50
2017,05,22,02,18,14.40
2017,05,22,02,19,14.30
2017,05,22,02,20,14.30
2017,05,22,02,21,14.20
2017,05,22,02,22,14.20
2017,05,22,02,23,14.20
2017,05,22,02,24,14.10
2017,05,22,02,25,14.10
2017,05,22,02,26,14.00
2017,05,22,02,27,14.00
2017,05,22,02,28,13.90
2017,05,22,02,29,13.90
2017,05,22,02,30,13.80
2017,05,22,02,31,13.80
2017,05,22,02,32,13.80
2017,05,22,02,33,13.80
2017,05,22,02,34,13.70
2017,05,22,02,35,13.70
2017,05,22,02,36,13.70
2017,05,22,02,37,13.70
2017,05,22,02,38,13.70
2017,05,22,02,39,13.70
2017,05,22,02,40,13.70
2017,05,22,02,41,13.60
2017,05,22,02,42,13.60
2017,05,22,02,43,13.60
2017,05,22,02,44,13.60
2017,05,22,02,45,13.60
2017,05,22,02,46,13.60
2017,05,22,02,47,13.60
2017,05,22,02,48,13.60
2017,05,22,02,49,13.60
2017,05,22,02,50,13.60
2017,05,22,02,51,13.60
2017,05,22,02,52,13.60
2017,05,22,02,53,13.60
2017,05,22,02,54,13.50
2017,05,22,02,55,13.50
2017,05,22,02,56,13.50
2017,05,22,02,57,13.50
2017,05,22,02,58,13.50
2017,05,22,02,59,13.50
2017,05,22,03,00,13.60
2017,05,22,03,01,13.60
2017,05,22,03,02,13.60
2017,05,22,03,03,13.60
2017,05,22,03,04,13.60
2017,05,22,03,05,13.60
2017,05,22,03,06,13.60
2017,05,22,03,07,13.60
2017,05,22,03,08,13.60
2017,05,22,03,09,13.60
2017,05,22,03,10,13.60
2017,05,22,03,11,13.60
2017,05,22,03,12,13.60
2017,05,22,03,13,13.60
2017,05,22,03,14,13.70
2017,05,22,03,15,13.70
2017,05,22,03,16,13.70
2017,05,22,03,17,13.70
2017,05,22,03,18,13.70
2017,05,22,03,19,13.80
2017,05,22,03,20,13.80
2017,05,22,03,21,13.90
2017,05,22,03,22,13.90
2017,05,22,03,23,14.00
2017,05,22,03,24,14.00
2017,05,22,03,25,14.00
2017,05,22,03,26,14.10
2017,05,22,03,27,14.10
2017,05,22,03,28,14.10
2017,05,22,03,29,14.10
2017,05,22,03,30,14.10
2017,05,22,03,31,14.10
2017,05,22,03,32,14.10
2017,05,22,03,33,14.10
2017,05,22,03,34,14.20
2017,05,22,03,35,14.20
2017,05,22,03,36,14.10
2017,05,22,03,37,14.10
2017,05,22,03,38,14.10
2017,05,22,03,39,14.10
2017,05,22,03,40,14.10
2017,05,22,03,41,14.10
2017,05,22,03,42,14.10
2017,05,22,03,43,14.10
2017,05,22,03,44,14.10
2017,05,22,03,45,14.00
2017,05,22,03,46,14.00
2017,05,22,03,47,14.00
2017,05,22,03,48,14.00
2017,05,22,03,49,14.00
2017,05,22,03,50,13.90
2017,05,22,03,51,13.90
2017,05,22,03,52,13.90
2017,05,22,03,53,13.90
2017,05,22,03,54,13.90
2017,05,22,03,55,13.80
2017,05,22,03,56,13.80
2017,05,22,03,57,13.80
2017,05,22,03,58,13.80
2017,05,22,03,59,13.80
2017,05,22,04,00,13.70
2017,05,22,04,01,13.70
2017,05,22,04,02,13.70
2017,05,22,04,03,13.70
2017,05,22,04,04,13.70
2017,05,22,04,05,13.70
2017,05,22,04,06,13.70
2017,05,22,04,07,13.70
2017,05,22,04,08,13.70
2017,05,22,04,09,13.70
2017,05,22,04,10,13.70
2017,05,22,04,11,13.70
2017,05,22,04,12,13.70
2017,05,22,04,13,13.80
2017,05,22,04,14,13.80
2017,05,22,04,15,13.80
2017,05,22,04,16,13.80
2017,05,22,04,17,13.70
2017,05,22,04,18,13.70
2017,05,22,04,19,13.70
2017,05,22,04,20,13.70
2017,05,22,04,21,13.70
2017,05,22,04,22,13.70
2017,05,22,04,23,13.70
2017,05,22,04,24,13.60
2017,05,22,04,25,13.60
2017,05,22,04,26,13.60
2017,05,22,04,27,13.60
2017,05,22,04,28,13.50
2017,05,22,04,29,13.50
2017,05,22,04,30,13.40
2017,05,22,04,31,13.40
2017,05,22,04,32,13.40
2017,05,22,04,33,13.40
2017,05,22,04,34,13.40
2017,05,22,04,35,13.30
2017,05,22,04,36,13.30
2017,05,22,04,37,13.30
2017,05,22,04,38,13.30
2017,05,22,04,39,13.30
2017,05,22,04,40,13.30
2017,05,22,04,41,13.30
2017,05,22,04,42,13.20
2017,05,22,04,43,13.20
2017,05,22,04,44,13.20
2017,05,22,04,45,13.20
2017,05,22,04,46,13.20
2017,05,22,04,47,13.20
2017,05,22,04,48,13.20
2017,05,22,04,49,13.20
2017,05,22,04,50,13.10
2017,05,22,04,51,13.10
2017,05,22,04,52,13.10
2017,05,22,04,53,13.10
2017,05,22,04,54,13.10
2017,05,22,04,55,13.00
2017,05,22,04,56,13.00
2017,05,22,04,57,13.00
2017,05,22,04,58,12.90
2017,05,22,04,59,12.90
2017,05,22,05,00,12.90
2017,05,22,05,01,12.90
2017,05,22,05,02,12.80
2017,05,22,05,03,12.80
2017,05,22,05,04,12.80
2017,05,22,05,05,12.80
2017,05,22,05,06,12.90
2017,05,22,05,07,12.90
2017,05,22,05,08,12.90
2017,05,22,05,09,12.90
2017,05,22,05,10,12.90
2017,05,22,05,11,12.90
2017,05,22,05,12,12.90
2017,05,22,05,13,12.90
2017,05,22,05,14,12.90
2017,05,22,05,15,13.00
2017,05,22,05,16,13.00
2017,05,22,05,17,13.00
2017,05,22,05,18,13.00
2017,05,22,05,19,13.00
2017,05,22,05,20,13.00
2017,05,22,05,21,13.00
2017,05,22,05,22,13.00
2017,05,22,05,23,13.00
2017,05,22,05,24,13.00
2017,05,22,05,25,12.90
2017,05,22,05,26,12.90
2017,05,22,05,27,12.80
2017,05,22,05,28,12.80
2017,05,22,05,29,12.70
2017,05,22,05,30,12.70
2017,05,22,05,31,12.60
2017,05,22,05,32,12.60
2017,05,22,05,33,12.50
2017,05,22,05,34,12.50
2017,05,22,05,35,12.40
2017,05,22,05,36,12.40
2017,05,22,05,37,12.40
2017,05,22,05,38,12.40
2017,05,22,05,39,12.40
2017,05,22,05,40,12.40
2017,05,22,05,41,12.50
2017,05,22,05,42,12.50
2017,05,22,05,43,12.50
2017,05,22,05,44,12.60
2017,05,22,05,45,12.60
2017,05,22,05,46,12.60
2017,05,22,05,47,12.60
2017,05,22,05,48,12.60
2017,05,22,05,49,12.60
2017,05,22,05,50,12.60
2017,05,22,05,51,12.60
2017,05,22,05,52,12.60
2017,05,22,05,53,12.70
2017,05,22,05,54,12.80
2017,05,22,05,55,13.00
2017,05,22,05,56,13.10
2017,05,22,05,57,13.30
2017,05,22,05,58,13.40
2017,05,22,05,59,13.50
2017,05,22,06,00,13.60
2017,05,22,06,01,13.70
2017,05,22,06,02,13.70
2017,05,22,06,03,13.70
2017,05,22,06,04,13.80
2017,05,22,06,05,13.80
2017,05,22,06,06,13.80
2017,05,22,06,07,13.80
2017,05,22,06,08,13.80
2017,05,22,06,09,13.80
2017,05,22,06,10,13.80
2017,05,22,06,11,13.70
2017,05,22,06,12,13.70
2017,05,22,06,13,13.70
2017,05,22,06,14,13.60
2017,05,22,06,15,13.60
2017,05,22,06,16,13.50
2017,05,22,06,17,13.50
2017,05,22,06,18,13.40
2017,05,22,06,19,13.40
2017,05,22,06,20,13.30
2017,05,22,06,21,13.30
2017,05,22,06,22,13.20
2017,05,22,06,23,13.20
2017,05,22,06,24,13.20
2017,05,22,06,25,13.20
2017,05,22,06,26,13.20
2017,05,22,06,27,13.20
2017,05,22,06,28,13.20
2017,05,22,06,29,13.20
2017,05,22,06,30,13.20
2017,05,22,06,31,13.20
2017,05,22,06,32,13.20
2017,05,22,06,33,13.30
2017,05,22,06,34,13.30
2017,05,22,06,35,13.30
2017,05,22,06,36,13.40
2017,05,22,06,37,13.50
2017,05,22,06,38,13.50
2017,05,22,06,39,13.60
2017,05,22,06,40,13.60
2017,05,22,06,41,13.70
2017,05,22,06,42,13.70
2017,05,22,06,43,13.80
2017,05,22,06,44,13.80
2017,05,22,06,45,13.80
2017,05,22,06,46,13.80
2017,05,22,06,47,13.90
2017,05,22,06,48,13.90
2017,05,22,06,49,13.80
2017,05,22,06,50,13.80
2017,05,22,06,51,13.80
2017,05,22,06,52,13.80
2017,05,22,06,53,13.80
2017,05,22,06,54,13.80
2017,05,22,06,55,13.70
2017,05,22,06,56,13.70
2017,05,22,06,57,13.60
2017,05,22,06,58,13.60
2017,05,22,06,59,13.60
2017,05,22,07,00,13.50
2017,05,22,07,01,13.50
2017,05,22,07,02,13.40
2017,05,22,07,03,13.40
2017,05,22,07,04,13.40
2017,05,22,07,05,13.40
2017,05,22,07,06,13.40
2017,05,22,07,07,13.40
2017,05,22,07,08,13.40
2017,05,22,07,09,13.50
2017,05,22,07,10,13.50
2017,05,22,07,11,13.50
2017,05,22,07,12,13.50
2017,05,22,07,13,13.60
2017,05,22,07,14,13.60
2017,05,22,07,15,13.60
2017,05,22,07,16,13.70
2017,05,22,07,17,13.70
2017,05,22,07,18,13.70
2017,05,22,07,19,13.70
2017,05,22,07,20,13.80
2017,05,22,07,21,13.80
2017,05,22,07,22,13.80
2017,05,22,07,23,13.80
2017,05,22,07,24,13.80
2017,05,22,07,25,13.90
2017,05,22,07,26,13.90
2017,05,22,07,27,13.90
2017,05,22,07,28,14.00
2017,05,22,07,29,14.00
2017,05,22,07,30,14.10
2017,05,22,07,31,14.10
2017,05,22,07,32,14.10
2017,05,22,07,33,14.20
2017,05,22,07,34,14.20
2017,05,22,07,35,14.20
2017,05,22,07,36,14.30
2017,05,22,07,37,14.30
2017,05,22,07,38,14.30
2017,05,22,07,39,14.40
2017,05,22,07,40,14.40
2017,05,22,07,41,14.50
2017,05,22,07,42,14.50
2017,05,22,07,43,14.60
2017,05,22,07,44,14.70
2017,05,22,07,45,14.70
2017,05,22,07,46,14.80
2017,05,22,07,47,14.90
2017,05,22,07,48,15.00
2017,05,22,07,49,15.10
2017,05,22,07,50,15.20
2017,05,22,07,51,15.30
2017,05,22,07,52,15.40
2017,05,22,07,53,15.40
2017,05,22,07,54,15.50
2017,05,22,07,55,15.60
2017,05,22,07,56,15.70
2017,05,22,07,57,15.80
2017,05,22,07,58,15.90
2017,05,22,07,59,15.90
2017,05,22,08,00,16.00
2017,05,22,08,01,16.10
2017,05,22,08,02,16.20
2017,05,22,08,03,16.30
2017,05,22,08,04,16.30
2017,05,22,08,05,16.40
2017,05,22,08,06,16.40
2017,05,22,08,07,16.50
2017,05,22,08,08,16.60
2017,05,22,08,09,16.70
2017,05,22,08,10,16.70
2017,05,22,08,11,16.80
2017,05,22,08,12,16.90
2017,05,22,08,13,16.90
2017,05,22,08,14,17.00
2017,05,22,08,15,17.10
2017,05,22,08,16,17.10
2017,05,22,08,17,17.20
2017,05,22,08,18,17.30
2017,05,22,08,19,17.30
2017,05,22,08,20,17.40
2017,05,22,08,21,17.50
2017,05,22,08,22,17.50
2017,05,22,08,23,17.60
2017,05,22,08,24,17.70
2017,05,22,08,25,17.70
2017,05,22,08,26,17.80
2017,05,22,08,27,17.90
2017,05,22,08,28,17.90
2017,05,22,08,29,18.00
2017,05,22,08,30,18.00
2017,05,22,08,31,18.10
2017,05,22,08,32,18.10
2017,05,22,08,33,18.10
2017,05,22,08,34,18.20
2017,05,22,08,35,18.20
2017,05,22,08,36,18.20
2017,05,22,08,37,18.30
2017,05,22,08,38,18.30
2017,05,22,08,39,18.40
2017,05,22,08,40,18.40
2017,05,22,08,41,18.40
2017,05,22,08,42,18.50
2017,05,22,08,43,18.50
2017,05,22,08,44,18.60
2017,05,22,08,45,18.60
2017,05,22,08,46,18.60
2017,05,22,08,47,18.60
2017,05,22,08,48,18.70
2017,05,22,08,49,18.70
2017,05,22,08,50,18.80
2017,05,22,08,51,18.90
2017,05,22,08,52,19.00
2017,05,22,08,53,19.00
2017,05,22,08,54,19.10
2017,05,22,08,55,19.10
2017,05,22,08,56,19.20
2017,05,22,08,57,19.20
2017,05,22,08,58,19.20
2017,05,22,08,59,19.30
2017,05,22,09,00,19.30
2017,05,22,09,01,19.30
2017,05,22,09,02,19.40
2017,05,22,09,03,19.40
2017,05,22,09,04,19.50
2017,05,22,09,05,19.50
2017,05,22,09,06,19.50
2017,05,22,09,07,19.50
2017,05,22,09,08,19.50
2017,05,22,09,09,19.40
2017,05,22,09,10,19.50
2017,05,22,09,11,19.50
2017,05,22,09,12,19.50
2017,05,22,09,13,19.50
2017,05,22,09,14,19.50
2017,05,22,09,15,19.40
2017,05,22,09,16,19.40
2017,05,22,09,17,19.50
2017,05,22,09,18,19.50
2017,05,22,09,19,19.50
2017,05,22,09,20,19.50
2017,05,22,09,21,19.50
2017,05,22,09,22,19.50
2017,05,22,09,23,19.50
2017,05,22,09,24,19.50
2017,05,22,09,25,19.50
2017,05,22,09,26,19.40
2017,05,22,09,27,19.30
2017,05,22,09,28,19.20
2017,05,22,09,29,19.20
2017,05,22,09,30,19.10
2017,05,22,09,31,19.00
2017,05,22,09,32,18.90
2017,05,22,09,33,18.70
2017,05,22,09,34,18.60
2017,05,22,09,35,18.60
2017,05,22,09,36,18.50
2017,05,22,09,37,18.50
2017,05,22,09,38,18.50
2017,05,22,09,39,18.50
2017,05,22,09,40,18.50
2017,05,22,09,41,18.50
2017,05,22,09,42,18.50
2017,05,22,09,43,18.60
2017,05,22,09,44,18.60
2017,05,22,09,45,18.60
2017,05,22,09,46,18.70
2017,05,22,09,47,18.70
2017,05,22,09,48,18.70
2017,05,22,09,49,18.80
2017,05,22,09,50,18.80
2017,05,22,09,51,18.80
2017,05,22,09,52,18.90
2017,05,22,09,53,18.90
2017,05,22,09,54,18.90
2017,05,22,09,55,19.00
2017,05,22,09,56,19.00
2017,05,22,09,57,19.00
2017,05,22,09,58,19.00
2017,05,22,09,59,19.10
2017,05,22,10,00,19.10
2017,05,22,10,01,19.10
2017,05,22,10,02,19.20
2017,05,22,10,03,19.20
2017,05,22,10,04,19.20
2017,05,22,10,05,19.30
2017,05,22,10,06,19.30
2017,05,22,10,07,19.30
2017,05,22,10,08,19.30
2017,05,22,10,09,19.40
2017,05,22,10,10,19.40
2017,05,22,10,11,19.50
2017,05,22,10,12,19.60
2017,05,22,10,13,19.60
2017,05,22,10,14,19.60
2017,05,22,10,15,19.70
2017,05,22,10,16,19.70
2017,05,22,10,17,19.70
2017,05,22,10,18,19.80
2017,05,22,10,19,19.80
2017,05,22,10,20,19.80
2017,05,22,10,21,19.80
2017,05,22,10,22,19.90
2017,05,22,10,23,19.90
2017,05,22,10,24,19.90
2017,05,22,10,25,20.00
2017,05,22,10,26,20.00
2017,05,22,10,27,20.10
2017,05,22,10,28,20.20
2017,05,22,10,29,20.20
2017,05,22,10,30,20.30
2017,05,22,10,31,20.30
2017,05,22,10,32,20.40
2017,05,22,10,33,20.40
2017,05,22,10,34,20.40
2017,05,22,10,35,20.50
2017,05,22,10,36,20.40
2017,05,22,10,37,20.40
2017,05,22,10,38,20.40
2017,05,22,10,39,20.40
2017,05,22,10,40,20.40
2017,05,22,10,41,20.40
2017,05,22,10,42,20.40
2017,05,22,10,43,20.40
2017,05,22,10,44,20.40
2017,05,22,10,45,20.50
2017,05,22,10,46,20.60
2017,05,22,10,47,20.60
2017,05,22,10,48,20.70
2017,05,22,10,49,20.70
2017,05,22,10,50,20.70
2017,05,22,10,51,20.60
2017,05,22,10,52,20.60
2017,05,22,10,53,20.60
2017,05,22,10,54,20.60
2017,05,22,10,55,20.60
2017,05,22,10,56,20.70
2017,05,22,10,57,20.70
2017,05,22,10,58,20.70
2017,05,22,10,59,20.70
2017,05,22,11,00,20.80
2017,05,22,11,01,20.80
2017,05,22,11,02,20.80
2017,05,22,11,03,20.80
2017,05,22,11,04,20.80
2017,05,22,11,05,20.90
2017,05,22,11,06,20.90
2017,05,22,11,07,20.90
2017,05,22,11,08,21.00
2017,05,22,11,09,21.00
2017,05,22,11,10,21.10
2017,05,22,11,11,21.20
2017,05,22,11,12,21.30
2017,05,22,11,13,21.30
2017,05,22,11,14,21.30
2017,05,22,11,15,21.30
2017,05,22,11,16,21.20
2017,05,22,11,17,21.20
2017,05,22,11,18,21.30
2017,05,22,11,19,21.30
2017,05,22,11,20,21.30
2017,05,22,11,21,21.40
2017,05,22,11,22,21.40
2017,05,22,11,23,21.50
2017,05,22,11,24,21.50
2017,05,22,11,25,21.50
2017,05,22,11,26,21.50
2017,05,22,11,27,21.50
2017,05,22,11,28,21.60
2017,05,22,11,29,21.70
2017,05,22,11,30,21.80
2017,05,22,11,31,21.80
2017,05,22,11,32,21.80
2017,05,22,11,33,21.90
2017,05,22,11,34,21.90
2017,05,22,11,35,21.90
2017,05,22,11,36,21.90
2017,05,22,11,37,21.90
2017,05,22,11,38,22.00
2017,05,22,11,39,22.10
2017,05,22,11,40,22.10
2017,05,22,11,41,22.20
2017,05,22,11,42,22.20
2017,05,22,11,43,22.20
2017,05,22,11,44,22.20
2017,05,22,11,45,22.30
2017,05,22,11,46,22.30
2017,05,22,11,47,22.40
2017,05,22,11,48,22.40
2017,05,22,11,49,22.40
2017,05,22,11,50,22.30
2017,05,22,11,51,22.30
2017,05,22,11,52,22.20
2017,05,22,11,53,22.20
2017,05,22,11,54,22.20
2017,05,22,11,55,22.20
2017,05,22,11,56,22.20
2017,05,22,11,57,22.30
2017,05,22,11,58,22.30
2017,05,22,11,59,22.30
2017,05,22,12,00,22.40
2017,05,22,12,01,22.40
2017,05,22,12,02,22.50
2017,05,22,12,03,22.50
2017,05,22,12,04,22.50
2017,05,22,12,05,22.50
2017,05,22,12,06,22.50
2017,05,22,12,07,22.40
2017,05,22,12,08,22.40
2017,05,22,12,09,22.40
2017,05,22,12,10,22.50
2017,05,22,12,11,22.50
2017,05,22,12,12,22.60
2017,05,22,12,13,22.60
2017,05,22,12,14,22.60
2017,05,22,12,15,22.60
2017,05,22,12,16,22.70
2017,05,22,12,17,22.70
2017,05,22,12,18,22.70
2017,05,22,12,19,22.80
2017,05,22,12,20,22.80
2017,05,22,12,21,22.80
2017,05,22,12,22,22.90
2017,05,22,12,23,23.00
2017,05,22,12,24,23.10
2017,05,22,12,25,23.20
2017,05,22,12,26,23.20
2017,05,22,12,27,23.20
2017,05,22,12,28,23.20
2017,05,22,12,29,23.30
2017,05,22,12,30,23.30
2017,05,22,12,31,23.30
2017,05,22,12,32,23.30
2017,05,22,12,33,23.30
2017,05,22,12,34,23.30
2017,05,22,12,35,23.30
2017,05,22,12,36,23.20
2017,05,22,12,37,23.20
2017,05,22,12,38,23.20
2017,05,22,12,39,23.10
2017,05,22,12,40,23.10
2017,05,22,12,41,23.10
2017,05,22,12,42,23.10
2017,05,22,12,43,23.00
2017,05,22,12,44,23.00
2017,05,22,12,45,23.00
2017,05,22,12,46,23.00
2017,05,22,12,47,23.00
2017,05,22,12,48,23.10
2017,05,22,12,49,23.20
2017,05,22,12,50,23.20
2017,05,22,12,51,23.20
2017,05,22,12,52,23.20
2017,05,22,12,53,23.10
2017,05,22,12,54,23.10
2017,05,22,12,55,23.10
2017,05,22,12,56,23.20
2017,05,22,12,57,23.20
2017,05,22,12,58,23.20
2017,05,22,12,59,23.20
2017,05,22,13,00,23.20
2017,05,22,13,01,23.20
2017,05,22,13,02,23.20
2017,05,22,13,03,23.30
2017,05,22,13,04,23.30
2017,05,22,13,05,23.30
2017,05,22,13,06,23.40
2017,05,22,13,07,23.50
2017,05,22,13,08,23.50
2017,05,22,13,09,23.60
2017,05,22,13,10,23.60
2017,05,22,13,11,23.60
2017,05,22,13,12,23.50
2017,05,22,13,13,23.50
2017,05,22,13,14,23.40
2017,05,22,13,15,23.40
2017,05,22,13,16,23.40
2017,05,22,13,17,23.40
2017,05,22,13,18,23.40
2017,05,22,13,19,23.50
2017,05,22,13,20,23.50
2017,05,22,13,21,23.60
2017,05,22,13,22,23.60
2017,05,22,13,23,23.70
2017,05,22,13,24,23.80
2017,05,22,13,25,23.80
2017,05,22,13,26,23.80
2017,05,22,13,27,23.80
2017,05,22,13,28,23.90
2017,05,22,13,29,23.90
2017,05,22,13,30,23.80
2017,05,22,13,31,23.80
2017,05,22,13,32,23.80
2017,05,22,13,33,23.80
2017,05,22,13,34,23.80
2017,05,22,13,35,23.80
2017,05,22,13,36,23.70
2017,05,22,13,37,23.60
2017,05,22,13,38,23.50
2017,05,22,13,39,23.40
2017,05,22,13,40,23.20
2017,05,22,13,41,23.20
2017,05,22,13,42,23.30
2017,05,22,13,43,23.30
2017,05,22,13,44,23.20
2017,05,22,13,45,23.30
2017,05,22,13,46,23.30
2017,05,22,13,47,23.40
2017,05,22,13,48,23.50
2017,05,22,13,49,23.50
2017,05,22,13,50,23.60
2017,05,22,13,51,23.60
2017,05,22,13,52,23.60
2017,05,22,13,53,23.70
2017,05,22,13,54,23.80
2017,05,22,13,55,23.80
2017,05,22,13,56,23.90
2017,05,22,13,57,23.90
2017,05,22,13,58,23.90
2017,05,22,13,59,23.90
2017,05,22,14,00,24.00
2017,05,22,14,01,24.10
2017,05,22,14,02,24.10
2017,05,22,14,03,24.20
2017,05,22,14,04,24.30
2017,05,22,14,05,24.30
2017,05,22,14,06,24.30
2017,05,22,14,07,24.40
2017,05,22,14,08,24.40
2017,05,22,14,09,24.30
2017,05,22,14,10,24.30
2017,05,22,14,11,24.20
2017,05,22,14,12,24.10
2017,05,22,14,13,24.10
2017,05,22,14,14,24.10
2017,05,22,14,15,24.10
2017,05,22,14,16,24.20
2017,05,22,14,17,24.20
2017,05,22,14,18,24.30
2017,05,22,14,19,24.30
2017,05,22,14,20,24.30
2017,05,22,14,21,24.30
2017,05,22,14,22,24.40
2017,05,22,14,23,24.40
2017,05,22,14,24,24.50
2017,05,22,14,25,24.60
2017,05,22,14,26,24.60
2017,05,22,14,27,24.60
2017,05,22,14,28,24.60
2017,05,22,14,29,24.60
2017,05,22,14,30,24.60
2017,05,22,14,31,24.60
2017,05,22,14,32,24.50
2017,05,22,14,33,24.50
2017,05,22,14,34,24.50
2017,05,22,14,35,24.60
2017,05,22,14,36,24.70
2017,05,22,14,37,24.80
2017,05,22,14,38,24.80
2017,05,22,14,39,24.80
2017,05,22,14,40,24.80
2017,05,22,14,41,24.80
2017,05,22,14,42,24.90
2017,05,22,14,43,24.90
2017,05,22,14,44,24.90
2017,05,22,14,45,24.90
2017,05,22,14,46,25.00
2017,05,22,14,47,25.10
2017,05,22,14,48,25.20
2017,05,22,14,49,25.10
2017,05,22,14,50,25.10
2017,05,22,14,51,25.00
2017,05,22,14,52,24.90
2017,05,22,14,53,24.90
2017,05,22,14,54,24.90
2017,05,22,14,55,25.00
2017,05,22,14,56,25.10
2017,05,22,14,57,25.10
2017,05,22,14,58,25.10
2017,05,22,14,59,25.10
2017,05,22,15,00,25.10
2017,05,22,15,01,25.10
2017,05,22,15,02,25.10
2017,05,22,15,03,25.10
2017,05,22,15,04,25.10
2017,05,22,15,05,25.10
2017,05,22,15,06,25.10
2017,05,22,15,07,25.10
2017,05,22,15,08,25.10
2017,05,22,15,09,25.10
2017,05,22,15,10,25.10
2017,05,22,15,11,25.10
2017,05,22,15,12,25.10
2017,05,22,15,13,25.00
2017,05,22,15,14,24.90
2017,05,22,15,15,24.80
2017,05,22,15,16,24.80
2017,05,22,15,17,24.80
2017,05,22,15,18,24.80
2017,05,22,15,19,24.80
2017,05,22,15,20,24.80
2017,05,22,15,21,24.90
2017,05,22,15,22,25.00
2017,05,22,15,23,25.00
2017,05,22,15,24,25.10
2017,05,22,15,25,25.10
2017,05,22,15,26,25.10
2017,05,22,15,27,25.20
2017,05,22,15,28,25.20
2017,05,22,15,29,25.20
2017,05,22,15,30,25.30
2017,05,22,15,31,25.30
2017,05,22,15,32,25.40
2017,05,22,15,33,25.60
2017,05,22,15,34,25.60
2017,05,22,15,35,25.70
2017,05,22,15,36,25.80
2017,05,22,15,37,25.80
2017,05,22,15,38,25.80
2017,05,22,15,39,25.80
2017,05,22,15,40,25.90
2017,05,22,15,41,25.90
2017,05,22,15,42,25.90
2017,05,22,15,43,26.00
2017,05,22,15,44,26.00
2017,05,22,15,45,26.00
2017,05,22,15,46,26.00
2017,05,22,15,47,26.00
2017,05,22,15,48,25.90
2017,05,22,15,49,25.80
2017,05,22,15,50,25.50
2017,05,22,15,51,25.30
2017,05,22,15,52,25.00
2017,05,22,15,53,24.70
2017,05,22,15,54,24.50
2017,05,22,15,55,24.30
2017,05,22,15,56,24.10
2017,05,22,15,57,23.90
2017,05,22,15,58,23.70
2017,05,22,15,59,23.50
2017,05,22,16,00,23.30
2017,05,22,16,01,23.00
2017,05,22,16,02,22.80
2017,05,22,16,03,22.50
2017,05,22,16,04,22.30
2017,05,22,16,05,22.10
2017,05,22,16,06,22.00
2017,05,22,16,07,21.90
2017,05,22,16,08,21.90
2017,05,22,16,09,21.80
2017,05,22,16,10,21.80
2017,05,22,16,11,21.80
2017,05,22,16,12,21.80
2017,05,22,16,13,21.80
2017,05,22,16,14,21.80
2017,05,22,16,15,21.80
2017,05,22,16,16,21.70
2017,05,22,16,17,21.70
2017,05,22,16,18,21.60
2017,05,22,16,19,21.60
2017,05,22,16,20,21.60
2017,05,22,16,21,21.50
2017,05,22,16,22,21.50
2017,05,22,16,23,21.40
2017,05,22,16,24,21.30
2017,05,22,16,25,21.30
2017,05,22,16,26,21.30
2017,05,22,16,27,21.30
2017,05,22,16,28,21.30
2017,05,22,16,29,21.40
2017,05,22,16,30,21.40
2017,05,22,16,31,21.30
2017,05,22,16,32,21.30
2017,05,22,16,33,21.20
2017,05,22,16,34,21.20
2017,05,22,16,35,21.10
2017,05,22,16,36,21.10
2017,05,22,16,37,21.10
2017,05,22,16,38,21.10
2017,05,22,16,39,21.20
2017,05,22,16,40,21.20
2017,05,22,16,41,21.30
2017,05,22,16,42,21.30
2017,05,22,16,43,21.30
2017,05,22,16,44,21.40
2017,05,22,16,45,21.40
2017,05,22,16,46,21.40
2017,05,22,16,47,21.50
2017,05,22,16,48,21.50
2017,05,22,16,49,21.50
2017,05,22,16,50,21.60
2017,05,22,16,51,21.60
2017,05,22,16,52,21.60
2017,05,22,16,53,21.60
2017,05,22,16,54,21.60
2017,05,22,16,55,21.70
2017,05,22,16,56,21.70
2017,05,22,16,57,21.70
2017,05,22,16,58,21.80
2017,05,22,16,59,21.80
2017,05,22,17,00,21.80
2017,05,22,17,01,21.90
2017,05,22,17,02,21.90
2017,05,22,17,03,22.00
2017,05,22,17,04,22.00
2017,05,22,17,05,22.10
2017,05,22,17,06,22.20
2017,05,22,17,07,22.20
2017,05,22,17,08,22.20
2017,05,22,17,09,22.30
2017,05,22,17,10,22.30
2017,05,22,17,11,22.40
2017,05,22,17,12,22.40
2017,05,22,17,13,22.50
2017,05,22,17,14,22.50
2017,05,22,17,15,22.50
2017,05,22,17,16,22.60
2017,05,22,17,17,22.60
2017,05,22,17,18,22.60
2017,05,22,17,19,22.70